Monday, July 23, 2018, 11:49 AM GMT
Back to Local

CWQO, Ile Bicquette, Que.

Location: , , Canada Lat: 48.416
Local Time: 11:49 AM GMT (11:49 GMT) Lon: -68.893
Time Zone: GMT Elev: 22 ft

Show me the last for .
Show Coded

Time T Td Feel RH Dir Speed Gust Alt SLP Vis Weather Sky Remarks
2018-07-23 11:00 53 52 - 99 340° 5 - - - 0 None
2018-07-23 10:00 56 56 - 98 60° 7 - - - 0 None
2018-07-23 09:00 56 56 - 99 80° 8 - - - 0 None
2018-07-23 08:00 55 55 - 98 100° 8 - - - 0 None
2018-07-23 07:00 53 53 - 98 110° 7 - - - 0 None
2018-07-23 06:00 50 50 - 98 360° 1 - - - 0 None
2018-07-23 05:00 53 53 - 98 70° 7 - - - 0 None
2018-07-23 04:00 53 53 - 98 30° 3 - - - 0 None
2018-07-23 03:00 54 54 - 98 90° 7 - - - 0 None
2018-07-23 02:00 52 52 - 98 170° 3 - - - 0 None
2018-07-23 01:00 50 49 - 96 210° 6 - - - 0 None
2018-07-23 00:00 51 50 - 97 290° 10 - - - 0 None
2018-07-22 23:00 51 49 - 95 350° 8 - - - 0 None
2018-07-22 22:00 51 50 - 96 30° 5 - - - 0 None
2018-07-22 21:00 56 53 - 90 60° 8 - - - 0 None
2018-07-22 20:00 55 52 - 89 40° 9 - - - 0 None
2018-07-22 19:00 57 52 - 83 30° 7 - - - 0 None
2018-07-22 18:00 58 54 - 86 350° 5 - - - 0 None
2018-07-22 17:00 54 51 - 89 10° 6 - - - 0 None
2018-07-22 16:00 55 51 - 88 30° 7 - - - 0 None
2018-07-22 15:00 57 51 - 82 50° 7 - - - 0 None
2018-07-22 14:00 55 49 - 79 360° 3 - - - 0 None
2018-07-22 13:00 55 52 - 88 350° 5 - - - 0 None
2018-07-22 12:00 53 52 - 94 320° 3 - - - 0 None

Support USWX by starting your Amazon purchase here.